Year,Month,Day,Hour,Minute,Value (Times are PST for temperature in C)
2015,03,17,00,00,3.20
2015,03,17,00,01,3.30
2015,03,17,00,02,3.50
2015,03,17,00,03,3.60
2015,03,17,00,04,3.70
2015,03,17,00,05,3.80
2015,03,17,00,06,3.80
2015,03,17,00,07,3.90
2015,03,17,00,08,3.90
2015,03,17,00,09,4.00
2015,03,17,00,10,4.00
2015,03,17,00,11,4.10
2015,03,17,00,12,4.20
2015,03,17,00,13,4.20
2015,03,17,00,14,4.20
2015,03,17,00,15,4.20
2015,03,17,00,16,4.20
2015,03,17,00,17,4.30
2015,03,17,00,18,4.30
2015,03,17,00,19,4.40
2015,03,17,00,20,4.40
2015,03,17,00,21,4.40
2015,03,17,00,22,4.50
2015,03,17,00,23,4.50
2015,03,17,00,24,4.60
2015,03,17,00,25,4.60
2015,03,17,00,26,4.60
2015,03,17,00,27,4.60
2015,03,17,00,28,4.60
2015,03,17,00,29,4.70
2015,03,17,00,30,4.70
2015,03,17,00,31,4.70
2015,03,17,00,32,4.70
2015,03,17,00,33,4.70
2015,03,17,00,34,4.70
2015,03,17,00,35,4.80
2015,03,17,00,36,4.80
2015,03,17,00,37,4.80
2015,03,17,00,38,4.80
2015,03,17,00,39,4.90
2015,03,17,00,40,4.90
2015,03,17,00,41,4.90
2015,03,17,00,42,4.90
2015,03,17,00,43,4.90
2015,03,17,00,44,4.90
2015,03,17,00,45,4.90
2015,03,17,00,46,4.90
2015,03,17,00,47,4.90
2015,03,17,00,48,4.90
2015,03,17,00,49,4.90
2015,03,17,00,50,4.90
2015,03,17,00,51,4.90
2015,03,17,00,52,4.90
2015,03,17,00,53,4.90
2015,03,17,00,54,4.90
2015,03,17,00,55,5.00
2015,03,17,00,56,5.00
2015,03,17,00,57,5.10
2015,03,17,00,58,5.20
2015,03,17,00,59,5.30
2015,03,17,01,00,5.40
2015,03,17,01,01,5.40
2015,03,17,01,02,5.50
2015,03,17,01,03,5.60
2015,03,17,01,04,5.60
2015,03,17,01,05,5.60
2015,03,17,01,06,5.60
2015,03,17,01,07,5.60
2015,03,17,01,08,5.60
2015,03,17,01,09,5.70
2015,03,17,01,10,5.70
2015,03,17,01,11,5.70
2015,03,17,01,12,5.70
2015,03,17,01,13,5.60
2015,03,17,01,14,5.60
2015,03,17,01,15,5.60
2015,03,17,01,16,5.60
2015,03,17,01,17,5.50
2015,03,17,01,18,5.50
2015,03,17,01,19,5.60
2015,03,17,01,20,5.60
2015,03,17,01,21,5.70
2015,03,17,01,22,5.70
2015,03,17,01,23,5.70
2015,03,17,01,24,5.70
2015,03,17,01,25,5.70
2015,03,17,01,26,5.70
2015,03,17,01,27,5.80
2015,03,17,01,28,5.80
2015,03,17,01,29,5.70
2015,03,17,01,30,5.70
2015,03,17,01,31,5.80
2015,03,17,01,32,5.70
2015,03,17,01,33,5.70
2015,03,17,01,34,5.70
2015,03,17,01,35,5.70
2015,03,17,01,36,5.70
2015,03,17,01,37,5.70
2015,03,17,01,38,5.70
2015,03,17,01,39,5.70
2015,03,17,01,40,5.80
2015,03,17,01,41,5.80
2015,03,17,01,42,5.80
2015,03,17,01,43,5.80
2015,03,17,01,44,5.80
2015,03,17,01,45,5.80
2015,03,17,01,46,5.80
2015,03,17,01,47,5.80
2015,03,17,01,48,5.80
2015,03,17,01,49,5.90
2015,03,17,01,50,5.90
2015,03,17,01,51,5.90
2015,03,17,01,52,5.90
2015,03,17,01,53,5.90
2015,03,17,01,54,5.90
2015,03,17,01,55,5.90
2015,03,17,01,56,5.90
2015,03,17,01,57,5.90
2015,03,17,01,58,5.90
2015,03,17,01,59,5.90
2015,03,17,02,00,5.90
2015,03,17,02,01,5.80
2015,03,17,02,02,5.80
2015,03,17,02,03,5.80
2015,03,17,02,04,5.80
2015,03,17,02,05,5.80
2015,03,17,02,06,5.80
2015,03,17,02,07,5.80
2015,03,17,02,08,5.80
2015,03,17,02,09,5.90
2015,03,17,02,10,5.90
2015,03,17,02,11,6.00
2015,03,17,02,12,6.10
2015,03,17,02,13,6.10
2015,03,17,02,14,6.20
2015,03,17,02,15,6.20
2015,03,17,02,16,6.20
2015,03,17,02,17,6.20
2015,03,17,02,18,6.20
2015,03,17,02,19,6.20
2015,03,17,02,20,6.20
2015,03,17,02,21,6.10
2015,03,17,02,22,6.00
2015,03,17,02,23,6.00
2015,03,17,02,24,5.90
2015,03,17,02,25,5.90
2015,03,17,02,26,5.80
2015,03,17,02,27,5.80
2015,03,17,02,28,5.80
2015,03,17,02,29,5.80
2015,03,17,02,30,5.90
2015,03,17,02,31,5.90
2015,03,17,02,32,5.80
2015,03,17,02,33,5.80
2015,03,17,02,34,5.80
2015,03,17,02,35,5.80
2015,03,17,02,36,5.80
2015,03,17,02,37,5.70
2015,03,17,02,38,5.70
2015,03,17,02,39,5.70
2015,03,17,02,40,5.60
2015,03,17,02,41,5.60
2015,03,17,02,42,5.60
2015,03,17,02,43,5.60
2015,03,17,02,44,5.50
2015,03,17,02,45,5.50
2015,03,17,02,46,5.60
2015,03,17,02,47,5.60
2015,03,17,02,48,5.60
2015,03,17,02,49,5.60
2015,03,17,02,50,5.60
2015,03,17,02,51,5.50
2015,03,17,02,52,5.50
2015,03,17,02,53,5.40
2015,03,17,02,54,5.40
2015,03,17,02,55,5.40
2015,03,17,02,56,5.40
2015,03,17,02,57,5.40
2015,03,17,02,58,5.30
2015,03,17,02,59,5.30
2015,03,17,03,00,5.30
2015,03,17,03,01,5.30
2015,03,17,03,02,5.30
2015,03,17,03,03,5.30
2015,03,17,03,04,5.30
2015,03,17,03,05,5.30
2015,03,17,03,06,5.30
2015,03,17,03,07,5.30
2015,03,17,03,08,5.30
2015,03,17,03,09,5.30
2015,03,17,03,10,5.30
2015,03,17,03,11,5.30
2015,03,17,03,12,5.30
2015,03,17,03,13,5.30
2015,03,17,03,14,5.30
2015,03,17,03,15,5.30
2015,03,17,03,16,5.40
2015,03,17,03,17,5.40
2015,03,17,03,18,5.50
2015,03,17,03,19,5.50
2015,03,17,03,20,5.50
2015,03,17,03,21,5.60
2015,03,17,03,22,5.60
2015,03,17,03,23,5.60
2015,03,17,03,24,5.60
2015,03,17,03,25,5.50
2015,03,17,03,26,5.50
2015,03,17,03,27,5.50
2015,03,17,03,28,5.50
2015,03,17,03,29,5.40
2015,03,17,03,30,5.40
2015,03,17,03,31,5.40
2015,03,17,03,32,5.40
2015,03,17,03,33,5.40
2015,03,17,03,34,5.40
2015,03,17,03,35,5.40
2015,03,17,03,36,5.40
2015,03,17,03,37,5.40
2015,03,17,03,38,5.40
2015,03,17,03,39,5.50
2015,03,17,03,40,5.50
2015,03,17,03,41,5.60
2015,03,17,03,42,5.50
2015,03,17,03,43,5.50
2015,03,17,03,44,5.40
2015,03,17,03,45,5.40
2015,03,17,03,46,5.40
2015,03,17,03,47,5.40
2015,03,17,03,48,5.40
2015,03,17,03,49,5.40
2015,03,17,03,50,5.40
2015,03,17,03,51,5.40
2015,03,17,03,52,5.30
2015,03,17,03,53,5.30
2015,03,17,03,54,5.30
2015,03,17,03,55,5.20
2015,03,17,03,56,5.20
2015,03,17,03,57,5.20
2015,03,17,03,58,5.20
2015,03,17,03,59,5.20
2015,03,17,04,00,5.10
2015,03,17,04,01,5.10
2015,03,17,04,02,5.10
2015,03,17,04,06,5.00
2015,03,17,04,07,5.00
2015,03,17,04,08,5.00
2015,03,17,04,09,5.00
2015,03,17,04,10,5.00
2015,03,17,04,11,5.00
2015,03,17,04,12,5.00
2015,03,17,04,13,5.00
2015,03,17,04,14,4.90
2015,03,17,04,15,4.90
2015,03,17,04,16,4.90
2015,03,17,04,17,4.90
2015,03,17,04,18,4.80
2015,03,17,04,19,4.80
2015,03,17,04,20,4.80
2015,03,17,04,21,4.80
2015,03,17,04,22,4.80
2015,03,17,04,23,4.70
2015,03,17,04,24,4.70
2015,03,17,04,25,4.70
2015,03,17,04,26,4.70
2015,03,17,04,27,4.70
2015,03,17,04,28,4.70
2015,03,17,04,29,4.60
2015,03,17,04,30,4.60
2015,03,17,04,31,4.60
2015,03,17,04,32,4.50
2015,03,17,04,33,4.50
2015,03,17,04,34,4.40
2015,03,17,04,35,4.40
2015,03,17,04,36,4.40
2015,03,17,04,37,4.30
2015,03,17,04,38,4.30
2015,03,17,04,39,4.30
2015,03,17,04,40,4.30
2015,03,17,04,41,4.20
2015,03,17,04,42,4.30
2015,03,17,04,43,4.30
2015,03,17,04,44,4.30
2015,03,17,04,45,4.30
2015,03,17,04,46,4.30
2015,03,17,04,47,4.30
2015,03,17,04,48,4.30
2015,03,17,04,49,4.30
2015,03,17,04,50,4.30
2015,03,17,04,51,4.30
2015,03,17,04,52,4.30
2015,03,17,04,53,4.30
2015,03,17,04,54,4.30
2015,03,17,04,55,4.30
2015,03,17,04,56,4.30
2015,03,17,04,57,4.30
2015,03,17,04,58,4.20
2015,03,17,04,59,4.20
2015,03,17,05,00,4.10
2015,03,17,05,01,4.10
2015,03,17,05,02,4.00
2015,03,17,05,03,4.00
2015,03,17,05,04,3.90
2015,03,17,05,05,3.90
2015,03,17,05,06,3.90
2015,03,17,05,07,3.80
2015,03,17,05,08,3.90
2015,03,17,05,09,3.90
2015,03,17,05,10,4.00
2015,03,17,05,11,4.00
2015,03,17,05,12,4.10
2015,03,17,05,13,4.10
2015,03,17,05,14,4.10
2015,03,17,05,15,4.20
2015,03,17,05,16,4.20
2015,03,17,05,17,4.20
2015,03,17,05,18,4.20
2015,03,17,05,19,4.20
2015,03,17,05,20,4.30
2015,03,17,05,21,4.30
2015,03,17,05,22,4.30
2015,03,17,05,23,4.30
2015,03,17,05,24,4.30
2015,03,17,05,25,4.30
2015,03,17,05,26,4.30
2015,03,17,05,27,4.30
2015,03,17,05,28,4.40
2015,03,17,05,29,4.40
2015,03,17,05,30,4.40
2015,03,17,05,31,4.40
2015,03,17,05,32,4.40
2015,03,17,05,33,4.40
2015,03,17,05,34,4.40
2015,03,17,05,35,4.40
2015,03,17,05,36,4.40
2015,03,17,05,37,4.40
2015,03,17,05,38,4.40
2015,03,17,05,39,4.50
2015,03,17,05,40,4.50
2015,03,17,05,41,4.50
2015,03,17,05,42,4.50
2015,03,17,05,43,4.50
2015,03,17,05,44,4.50
2015,03,17,05,45,4.50
2015,03,17,05,46,4.60
2015,03,17,05,47,4.60
2015,03,17,05,48,4.60
2015,03,17,05,49,4.60
2015,03,17,05,50,4.60
2015,03,17,05,51,4.70
2015,03,17,05,52,4.70
2015,03,17,05,53,4.70
2015,03,17,05,54,4.70
2015,03,17,05,55,4.70
2015,03,17,05,56,4.70
2015,03,17,05,57,4.80
2015,03,17,05,58,4.80
2015,03,17,05,59,4.80
2015,03,17,06,00,4.80
2015,03,17,06,01,4.80
2015,03,17,06,02,4.80
2015,03,17,06,03,4.80
2015,03,17,06,04,4.90
2015,03,17,06,05,4.90
2015,03,17,06,06,4.90
2015,03,17,06,07,4.90
2015,03,17,06,08,4.90
2015,03,17,06,09,4.80
2015,03,17,06,10,4.80
2015,03,17,06,11,4.80
2015,03,17,06,12,4.80
2015,03,17,06,13,4.80
2015,03,17,06,14,4.80
2015,03,17,06,15,4.80
2015,03,17,06,16,4.80
2015,03,17,06,17,4.80
2015,03,17,06,18,4.80
2015,03,17,06,19,4.80
2015,03,17,06,20,4.80
2015,03,17,06,21,4.80
2015,03,17,06,22,4.80
2015,03,17,06,23,4.80
2015,03,17,06,24,4.80
2015,03,17,06,25,4.80
2015,03,17,06,26,4.80
2015,03,17,06,27,4.80
2015,03,17,06,28,4.70
2015,03,17,06,29,4.70
2015,03,17,06,30,4.70
2015,03,17,06,31,4.70
2015,03,17,06,32,4.70
2015,03,17,06,33,4.70
2015,03,17,06,34,4.80
2015,03,17,06,35,4.80
2015,03,17,06,36,4.70
2015,03,17,06,37,4.70
2015,03,17,06,38,4.80
2015,03,17,06,39,4.80
2015,03,17,06,40,4.80
2015,03,17,06,41,4.90
2015,03,17,06,42,4.90
2015,03,17,06,43,4.90
2015,03,17,06,44,4.90
2015,03,17,06,45,4.90
2015,03,17,06,46,4.90
2015,03,17,06,47,4.90
2015,03,17,06,48,4.90
2015,03,17,06,49,4.90
2015,03,17,06,50,4.90
2015,03,17,06,51,4.90
2015,03,17,06,52,4.90
2015,03,17,06,53,4.90
2015,03,17,06,54,4.90
2015,03,17,06,55,4.90
2015,03,17,06,56,4.90
2015,03,17,06,57,4.90
2015,03,17,06,58,4.90
2015,03,17,06,59,4.90
2015,03,17,07,00,4.90
2015,03,17,07,01,4.90
2015,03,17,07,02,4.90
2015,03,17,07,03,4.90
2015,03,17,07,04,4.90
2015,03,17,07,05,4.90
2015,03,17,07,06,4.90
2015,03,17,07,07,4.90
2015,03,17,07,08,4.90
2015,03,17,07,09,4.90
2015,03,17,07,10,4.90
2015,03,17,07,11,4.90
2015,03,17,07,12,4.90
2015,03,17,07,13,4.90
2015,03,17,07,14,4.90
2015,03,17,07,15,4.90
2015,03,17,07,16,4.90
2015,03,17,07,17,4.90
2015,03,17,07,18,4.90
2015,03,17,07,19,4.90
2015,03,17,07,20,4.90
2015,03,17,07,21,4.90
2015,03,17,07,22,4.90
2015,03,17,07,23,4.90
2015,03,17,07,24,4.90
2015,03,17,07,25,4.90
2015,03,17,07,26,4.90
2015,03,17,07,27,4.90
2015,03,17,07,28,4.90
2015,03,17,07,29,4.80
2015,03,17,07,30,4.80
2015,03,17,07,31,4.80
2015,03,17,07,32,4.80
2015,03,17,07,33,4.80
2015,03,17,07,34,4.80
2015,03,17,07,35,4.80
2015,03,17,07,36,4.80
2015,03,17,07,37,4.80
2015,03,17,07,38,4.80
2015,03,17,07,39,4.80
2015,03,17,07,40,4.80
2015,03,17,07,41,4.80
2015,03,17,07,42,4.80
2015,03,17,07,43,4.80
2015,03,17,07,44,4.80
2015,03,17,07,45,4.80
2015,03,17,07,46,4.80
2015,03,17,07,47,4.80
2015,03,17,07,48,4.80
2015,03,17,07,49,4.80
2015,03,17,07,50,4.80
2015,03,17,07,51,4.70
2015,03,17,07,52,4.70
2015,03,17,07,53,4.70
2015,03,17,07,54,4.70
2015,03,17,07,55,4.70
2015,03,17,07,56,4.70
2015,03,17,07,57,4.70
2015,03,17,07,58,4.70
2015,03,17,07,59,4.70
2015,03,17,08,00,4.70
2015,03,17,08,01,4.80
2015,03,17,08,02,4.80
2015,03,17,08,03,4.80
2015,03,17,08,04,4.80
2015,03,17,08,05,4.80
2015,03,17,08,06,4.80
2015,03,17,08,07,4.80
2015,03,17,08,08,4.80
2015,03,17,08,09,4.80
2015,03,17,08,10,4.80
2015,03,17,08,11,4.80
2015,03,17,08,12,4.80
2015,03,17,08,13,4.80
2015,03,17,08,14,4.80
2015,03,17,08,15,4.80
2015,03,17,08,16,4.80
2015,03,17,08,17,4.80
2015,03,17,08,18,4.90
2015,03,17,08,19,4.90
2015,03,17,08,20,4.90
2015,03,17,08,21,4.90
2015,03,17,08,22,4.90
2015,03,17,08,23,4.90
2015,03,17,08,24,4.90
2015,03,17,08,25,4.90
2015,03,17,08,26,4.90
2015,03,17,08,27,4.90
2015,03,17,08,28,4.90
2015,03,17,08,29,5.00
2015,03,17,08,30,5.00
2015,03,17,08,31,5.10
2015,03,17,08,32,5.10
2015,03,17,08,33,5.10
2015,03,17,08,34,5.10
2015,03,17,08,35,5.10
2015,03,17,08,36,5.20
2015,03,17,08,37,5.20
2015,03,17,08,38,5.20
2015,03,17,08,39,5.20
2015,03,17,08,40,5.20
2015,03,17,08,41,5.20
2015,03,17,08,42,5.20
2015,03,17,08,43,5.20
2015,03,17,08,44,5.20
2015,03,17,08,45,5.20
2015,03,17,08,46,5.20
2015,03,17,08,47,5.20
2015,03,17,08,48,5.20
2015,03,17,08,49,5.30
2015,03,17,08,50,5.30
2015,03,17,08,51,5.30
2015,03,17,08,52,5.30
2015,03,17,08,53,5.30
2015,03,17,08,54,5.30
2015,03,17,08,55,5.40
2015,03,17,08,56,5.40
2015,03,17,08,57,5.40
2015,03,17,08,58,5.40
2015,03,17,08,59,5.40
2015,03,17,09,00,5.50
2015,03,17,09,01,5.50
2015,03,17,09,02,5.50
2015,03,17,09,03,5.60
2015,03,17,09,04,5.60
2015,03,17,09,05,5.60
2015,03,17,09,06,5.60
2015,03,17,09,07,5.70
2015,03,17,09,08,5.70
2015,03,17,09,09,5.70
2015,03,17,09,10,5.80
2015,03,17,09,11,5.80
2015,03,17,09,12,5.80
2015,03,17,09,13,5.90
2015,03,17,09,14,5.90
2015,03,17,09,15,5.90
2015,03,17,09,16,5.90
2015,03,17,09,17,6.00
2015,03,17,09,18,6.00
2015,03,17,09,19,6.10
2015,03,17,09,20,6.10
2015,03,17,09,21,6.10
2015,03,17,09,22,6.20
2015,03,17,09,23,6.20
2015,03,17,09,24,6.20
2015,03,17,09,25,6.30
2015,03,17,09,26,6.30
2015,03,17,09,27,6.30
2015,03,17,09,28,6.30
2015,03,17,09,29,6.40
2015,03,17,09,30,6.40
2015,03,17,09,31,6.40
2015,03,17,09,32,6.40
2015,03,17,09,33,6.40
2015,03,17,09,34,6.50
2015,03,17,09,35,6.50
2015,03,17,09,36,6.50
2015,03,17,09,37,6.60
2015,03,17,09,38,6.60
2015,03,17,09,39,6.70
2015,03,17,09,40,6.70
2015,03,17,09,41,6.80
2015,03,17,09,42,6.80
2015,03,17,09,43,6.80
2015,03,17,09,44,6.90
2015,03,17,09,45,6.90
2015,03,17,09,46,7.00
2015,03,17,09,47,7.00
2015,03,17,09,48,7.00
2015,03,17,09,49,7.10
2015,03,17,09,50,7.10
2015,03,17,09,51,7.20
2015,03,17,09,52,7.20
2015,03,17,09,53,7.30
2015,03,17,09,54,7.30
2015,03,17,09,55,7.40
2015,03,17,09,56,7.40
2015,03,17,09,57,7.50
2015,03,17,09,58,7.60
2015,03,17,09,59,7.60
2015,03,17,10,00,7.60
2015,03,17,10,01,7.70
2015,03,17,10,02,7.70
2015,03,17,10,03,7.80
2015,03,17,10,04,7.80
2015,03,17,10,05,7.80
2015,03,17,10,06,7.90
2015,03,17,10,07,8.00
2015,03,17,10,08,8.00
2015,03,17,10,09,8.10
2015,03,17,10,10,8.20
2015,03,17,10,11,8.20
2015,03,17,10,12,8.30
2015,03,17,10,13,8.40
2015,03,17,10,14,8.40
2015,03,17,10,15,8.50
2015,03,17,10,16,8.60
2015,03,17,10,17,8.70
2015,03,17,10,18,8.70
2015,03,17,10,19,8.80
2015,03,17,10,20,8.80
2015,03,17,10,21,8.90
2015,03,17,10,22,9.00
2015,03,17,10,23,9.10
2015,03,17,10,24,9.10
2015,03,17,10,25,9.20
2015,03,17,10,26,9.20
2015,03,17,10,27,9.30
2015,03,17,10,28,9.40
2015,03,17,10,29,9.40
2015,03,17,10,30,9.50
2015,03,17,10,31,9.60
2015,03,17,10,32,9.70
2015,03,17,10,33,9.80
2015,03,17,10,34,9.90
2015,03,17,10,35,9.90
2015,03,17,10,36,10.00
2015,03,17,10,37,10.10
2015,03,17,10,38,10.10
2015,03,17,10,39,10.20
2015,03,17,10,40,10.20
2015,03,17,10,41,10.30
2015,03,17,10,42,10.30
2015,03,17,10,43,10.40
2015,03,17,10,44,10.40
2015,03,17,10,45,10.50
2015,03,17,10,46,10.50
2015,03,17,10,47,10.60
2015,03,17,10,48,10.70
2015,03,17,10,49,10.70
2015,03,17,10,50,10.70
2015,03,17,10,51,10.80
2015,03,17,10,52,10.90
2015,03,17,10,53,10.90
2015,03,17,10,54,11.00
2015,03,17,10,55,11.00
2015,03,17,10,56,11.10
2015,03,17,10,57,11.10
2015,03,17,10,58,11.20
2015,03,17,10,59,11.20
2015,03,17,11,00,11.30
2015,03,17,11,01,11.30
2015,03,17,11,02,11.30
2015,03,17,11,03,11.30
2015,03,17,11,04,11.30
2015,03,17,11,05,11.30
2015,03,17,11,06,11.30
2015,03,17,11,07,11.30
2015,03,17,11,08,11.40
2015,03,17,11,09,11.40
2015,03,17,11,10,11.40
2015,03,17,11,11,11.40
2015,03,17,11,12,11.50
2015,03,17,11,13,11.60
2015,03,17,11,14,11.70
2015,03,17,11,15,11.80
2015,03,17,11,16,11.80
2015,03,17,11,17,11.80
2015,03,17,11,18,11.80
2015,03,17,11,19,11.80
2015,03,17,11,20,11.80
2015,03,17,11,21,11.90
2015,03,17,11,22,11.90
2015,03,17,11,23,11.90
2015,03,17,11,24,11.90
2015,03,17,11,25,11.80
2015,03,17,11,26,11.80
2015,03,17,11,27,11.70
2015,03,17,11,28,11.70
2015,03,17,11,29,11.60
2015,03,17,11,30,11.60
2015,03,17,11,31,11.60
2015,03,17,11,32,11.60
2015,03,17,11,33,11.70
2015,03,17,11,34,11.80
2015,03,17,11,35,11.80
2015,03,17,11,36,11.90
2015,03,17,11,37,11.90
2015,03,17,11,38,11.90
2015,03,17,11,39,12.00
2015,03,17,11,40,12.00
2015,03,17,11,41,12.10
2015,03,17,11,42,12.10
2015,03,17,11,43,12.20
2015,03,17,11,44,12.20
2015,03,17,11,45,12.30
2015,03,17,11,46,12.40
2015,03,17,11,47,12.40
2015,03,17,11,48,12.40
2015,03,17,11,49,12.50
2015,03,17,11,50,12.50
2015,03,17,11,51,12.60
2015,03,17,11,52,12.60
2015,03,17,11,53,12.60
2015,03,17,11,54,12.60
2015,03,17,11,55,12.60
2015,03,17,11,56,12.60
2015,03,17,11,57,12.60
2015,03,17,11,58,12.60
2015,03,17,11,59,12.60
2015,03,17,12,00,12.60
2015,03,17,12,01,12.60
2015,03,17,12,02,12.60
2015,03,17,12,03,12.50
2015,03,17,12,04,12.50
2015,03,17,12,05,12.60
2015,03,17,12,06,12.60
2015,03,17,12,07,12.70
2015,03,17,12,08,12.70
2015,03,17,12,09,12.70
2015,03,17,12,10,12.70
2015,03,17,12,11,12.70
2015,03,17,12,12,12.80
2015,03,17,12,13,12.80
2015,03,17,12,14,12.70
2015,03,17,12,15,12.70
2015,03,17,12,16,12.70
2015,03,17,12,17,12.70
2015,03,17,12,18,12.80
2015,03,17,12,19,12.80
2015,03,17,12,20,12.90
2015,03,17,12,21,12.90
2015,03,17,12,22,12.90
2015,03,17,12,23,12.90
2015,03,17,12,24,12.80
2015,03,17,12,25,12.80
2015,03,17,12,26,12.80
2015,03,17,12,27,12.80
2015,03,17,12,28,12.80
2015,03,17,12,29,12.80
2015,03,17,12,30,12.80
2015,03,17,12,31,12.80
2015,03,17,12,32,12.70
2015,03,17,12,33,12.70
2015,03,17,12,34,12.70
2015,03,17,12,35,12.70
2015,03,17,12,36,12.70
2015,03,17,12,37,12.80
2015,03,17,12,38,12.70
2015,03,17,12,39,12.70
2015,03,17,12,40,12.70
2015,03,17,12,41,12.70
2015,03,17,12,42,12.70
2015,03,17,12,43,12.70
2015,03,17,12,44,12.70
2015,03,17,12,45,12.70
2015,03,17,12,46,12.80
2015,03,17,12,47,12.80
2015,03,17,12,48,12.90
2015,03,17,12,49,12.90
2015,03,17,12,50,13.00
2015,03,17,12,51,13.10
2015,03,17,12,52,13.20
2015,03,17,12,53,13.30
2015,03,17,12,54,13.40
2015,03,17,12,55,13.50
2015,03,17,12,56,13.60
2015,03,17,12,57,13.50
2015,03,17,12,58,13.30
2015,03,17,12,59,13.20
2015,03,17,13,00,13.10
2015,03,17,13,01,13.00
2015,03,17,13,02,12.90
2015,03,17,13,03,12.80
2015,03,17,13,04,12.70
2015,03,17,13,05,12.60
2015,03,17,13,06,12.60
2015,03,17,13,07,12.50
2015,03,17,13,08,12.40
2015,03,17,13,09,12.30
2015,03,17,13,10,12.30
2015,03,17,13,11,12.20
2015,03,17,13,12,12.20
2015,03,17,13,13,12.20
2015,03,17,13,14,12.30
2015,03,17,13,15,12.30
2015,03,17,13,16,12.40
2015,03,17,13,17,12.40
2015,03,17,13,18,12.40
2015,03,17,13,19,12.30
2015,03,17,13,20,12.30
2015,03,17,13,21,12.40
2015,03,17,13,22,12.40
2015,03,17,13,23,12.50
2015,03,17,13,24,12.60
2015,03,17,13,25,12.60
2015,03,17,13,26,12.60
2015,03,17,13,27,12.40
2015,03,17,13,28,12.40
2015,03,17,13,29,12.20
2015,03,17,13,30,12.10
2015,03,17,13,31,12.10
2015,03,17,13,32,12.10
2015,03,17,13,33,12.10
2015,03,17,13,34,12.10
2015,03,17,13,35,12.10
2015,03,17,13,36,12.10
2015,03,17,13,37,12.20
2015,03,17,13,38,12.20
2015,03,17,13,39,12.20
2015,03,17,13,40,12.20
2015,03,17,13,41,12.10
2015,03,17,13,42,12.10
2015,03,17,13,43,12.00
2015,03,17,13,44,11.90
2015,03,17,13,45,11.90
2015,03,17,13,46,11.90
2015,03,17,13,47,12.00
2015,03,17,13,48,12.10
2015,03,17,13,49,12.10
2015,03,17,13,50,12.20
2015,03,17,13,51,12.20
2015,03,17,13,52,12.20
2015,03,17,13,53,12.20
2015,03,17,13,54,12.20
2015,03,17,13,55,12.20
2015,03,17,13,56,12.30
2015,03,17,13,57,12.20
2015,03,17,13,58,12.20
2015,03,17,13,59,12.20
2015,03,17,14,00,12.20
2015,03,17,14,01,12.20
2015,03,17,14,02,12.30
2015,03,17,14,03,12.30
2015,03,17,14,04,12.30
2015,03,17,14,05,12.20
2015,03,17,14,06,12.20
2015,03,17,14,07,12.20
2015,03,17,14,08,12.20
2015,03,17,14,09,12.20
2015,03,17,14,10,12.20
2015,03,17,14,11,12.20
2015,03,17,14,12,12.20
2015,03,17,14,13,12.30
2015,03,17,14,14,12.30
2015,03,17,14,15,12.30
2015,03,17,14,16,12.40
2015,03,17,14,17,12.40
2015,03,17,14,18,12.30
2015,03,17,14,19,12.30
2015,03,17,14,20,12.30
2015,03,17,14,21,12.30
2015,03,17,14,22,12.30
2015,03,17,14,23,12.30
2015,03,17,14,24,12.30
2015,03,17,14,25,12.30
2015,03,17,14,26,12.30
2015,03,17,14,27,12.30
2015,03,17,14,28,12.30
2015,03,17,14,29,12.20
2015,03,17,14,30,12.10
2015,03,17,14,31,12.00
2015,03,17,14,32,12.00
2015,03,17,14,33,12.00
2015,03,17,14,34,12.00
2015,03,17,14,35,12.10
2015,03,17,14,36,12.20
2015,03,17,14,37,12.20
2015,03,17,14,38,12.20
2015,03,17,14,39,12.20
2015,03,17,14,40,12.20
2015,03,17,14,41,12.10
2015,03,17,14,42,12.10
2015,03,17,14,43,12.10
2015,03,17,14,44,12.10
2015,03,17,14,45,12.00
2015,03,17,14,46,11.90
2015,03,17,14,47,11.80
2015,03,17,14,48,11.70
2015,03,17,14,49,11.60
2015,03,17,14,50,11.50
2015,03,17,14,51,11.40
2015,03,17,14,52,11.30
2015,03,17,14,53,11.30
2015,03,17,14,54,11.20
2015,03,17,14,55,11.20
2015,03,17,14,56,11.20
2015,03,17,14,57,11.20
2015,03,17,14,58,11.20
2015,03,17,14,59,11.10
2015,03,17,15,00,11.20
2015,03,17,15,01,11.20
2015,03,17,15,02,11.20
2015,03,17,15,03,11.10
2015,03,17,15,04,11.00
2015,03,17,15,05,11.00
2015,03,17,15,06,10.90
2015,03,17,15,07,10.80
2015,03,17,15,08,10.70
2015,03,17,15,09,10.70
2015,03,17,15,10,10.70
2015,03,17,15,11,10.70
2015,03,17,15,12,10.70
2015,03,17,15,13,10.70
2015,03,17,15,14,10.60
2015,03,17,15,15,10.60
2015,03,17,15,16,10.50
2015,03,17,15,17,10.50
2015,03,17,15,18,10.40
2015,03,17,15,19,10.40
2015,03,17,15,20,10.40
2015,03,17,15,21,10.30
2015,03,17,15,22,10.30
2015,03,17,15,23,10.30
2015,03,17,15,24,10.20
2015,03,17,15,25,10.20
2015,03,17,15,26,10.20
2015,03,17,15,27,10.20
2015,03,17,15,28,10.20
2015,03,17,15,29,10.20
2015,03,17,15,30,10.20
2015,03,17,15,31,10.20
2015,03,17,15,32,10.20
2015,03,17,15,33,10.20
2015,03,17,15,34,10.30
2015,03,17,15,35,10.30
2015,03,17,15,36,10.30
2015,03,17,15,37,10.30
2015,03,17,15,38,10.30
2015,03,17,15,39,10.30
2015,03,17,15,40,10.30
2015,03,17,15,41,10.30
2015,03,17,15,42,10.30
2015,03,17,15,43,10.20
2015,03,17,15,44,10.20
2015,03,17,15,45,10.20
2015,03,17,15,46,10.20
2015,03,17,15,47,10.30
2015,03,17,15,48,10.30
2015,03,17,15,49,10.30
2015,03,17,15,50,10.40
2015,03,17,15,51,10.30
2015,03,17,15,52,10.30
2015,03,17,15,53,10.30
2015,03,17,15,54,10.40
2015,03,17,15,55,10.40
2015,03,17,15,56,10.40
2015,03,17,15,57,10.50
2015,03,17,15,58,10.50
2015,03,17,15,59,10.50
2015,03,17,16,00,10.50
2015,03,17,16,01,10.50
2015,03,17,16,02,10.50
2015,03,17,16,03,10.50
2015,03,17,16,04,10.50
2015,03,17,16,05,10.50
2015,03,17,16,06,10.50
2015,03,17,16,07,10.50
2015,03,17,16,08,10.50
2015,03,17,16,09,10.60
2015,03,17,16,10,10.60
2015,03,17,16,11,10.60
2015,03,17,16,12,10.60
2015,03,17,16,13,10.70
2015,03,17,16,14,10.70
2015,03,17,16,15,10.70
2015,03,17,16,16,10.70
2015,03,17,16,17,10.70
2015,03,17,16,18,10.70
2015,03,17,16,19,10.80
2015,03,17,16,20,10.80
2015,03,17,16,21,10.70
2015,03,17,16,22,10.80
2015,03,17,16,23,10.80
2015,03,17,16,24,10.80
2015,03,17,16,25,10.80
2015,03,17,16,26,10.80
2015,03,17,16,27,10.80
2015,03,17,16,28,10.80
2015,03,17,16,29,10.80
2015,03,17,16,30,10.90
2015,03,17,16,31,10.80
2015,03,17,16,32,10.80
2015,03,17,16,33,10.80
2015,03,17,16,34,10.80
2015,03,17,16,35,10.80
2015,03,17,16,36,10.80
2015,03,17,16,37,10.80
2015,03,17,16,38,10.80
2015,03,17,16,39,10.80
2015,03,17,16,40,10.80
2015,03,17,16,41,10.90
2015,03,17,16,42,10.90
2015,03,17,16,43,10.90
2015,03,17,16,44,10.90
2015,03,17,16,45,10.90
2015,03,17,16,46,10.90
2015,03,17,16,47,10.90
2015,03,17,16,48,10.90
2015,03,17,16,49,10.90
2015,03,17,16,50,11.00
2015,03,17,16,51,11.00
2015,03,17,16,52,11.00
2015,03,17,16,53,11.10
2015,03,17,16,54,11.10
2015,03,17,16,55,11.10
2015,03,17,16,56,11.10
2015,03,17,16,57,11.20
2015,03,17,16,58,11.20
2015,03,17,16,59,11.10
2015,03,17,17,00,11.10
2015,03,17,17,01,11.10
2015,03,17,17,02,11.10
2015,03,17,17,03,11.10
2015,03,17,17,04,11.10
2015,03,17,17,05,11.10
2015,03,17,17,06,11.10
2015,03,17,17,07,11.10
2015,03,17,17,08,11.10
2015,03,17,17,09,11.10
2015,03,17,17,10,11.10
2015,03,17,17,11,11.10
2015,03,17,17,12,11.00
2015,03,17,17,13,11.00
2015,03,17,17,14,10.90
2015,03,17,17,15,10.90
2015,03,17,17,16,10.80
2015,03,17,17,17,10.80
2015,03,17,17,18,10.70
2015,03,17,17,19,10.70
2015,03,17,17,20,10.60
2015,03,17,17,21,10.60
2015,03,17,17,22,10.50
2015,03,17,17,23,10.50
2015,03,17,17,24,10.50
2015,03,17,17,25,10.40
2015,03,17,17,26,10.40
2015,03,17,17,27,10.40
2015,03,17,17,28,10.40
2015,03,17,17,29,10.40
2015,03,17,17,30,10.40
2015,03,17,17,31,10.30
2015,03,17,17,32,10.30
2015,03,17,17,33,10.30
2015,03,17,17,34,10.20
2015,03,17,17,35,10.20
2015,03,17,17,36,10.20
2015,03,17,17,37,10.20
2015,03,17,17,38,10.20
2015,03,17,17,39,10.20
2015,03,17,17,40,10.10
2015,03,17,17,41,10.10
2015,03,17,17,42,10.10
2015,03,17,17,43,10.10
2015,03,17,17,44,10.10
2015,03,17,17,45,10.10
2015,03,17,17,46,10.10
2015,03,17,17,47,10.10
2015,03,17,17,48,10.10
2015,03,17,17,49,10.10